BAW24M EGLL-LEPA

Flight info

Callsign BAW24M
Flight time N/A
Altitude 35000
Route MODMI M185 MID L151 SITET UN859 SOPIL DCT BALAN DCT EVPOK DCT NARAK DCT GAI DCT LOMRA DCT ROCAN DCT IBRAP N13 LORES
Aircraft A320/M-SDE3FGHIRWY/LB1

Departure

Time 2026-05-06 13:27
Airport London Heathrow Airport (EGLL)

Arrival

Time N/A
Airport Palma de Mallorca Airport (LEPA)
Time Latitude Longitude Altitude Speed Heading
2026-05-06 12:57 51.47316 -0.48583 85 ft 0 kts 268°
2026-05-06 13:20 51.47316 -0.48577 85 ft 3 kts 268°
2026-05-06 13:20 51.47318 -0.48535 86 ft 4 kts 258°
2026-05-06 13:20 51.47326 -0.48495 90 ft 4 kts 232°
2026-05-06 13:20 51.47343 -0.48477 89 ft 1 kts 179°
2026-05-06 13:21 51.47344 -0.48477 89 ft 1 kts 178°
2026-05-06 13:24 51.47343 -0.48477 85 ft 1 kts 178°
2026-05-06 13:24 51.47308 -0.48475 85 ft 9 kts 178°
2026-05-06 13:24 51.47229 -0.48474 85 ft 12 kts 180°
2026-05-06 13:24 51.47137 -0.48476 85 ft 14 kts 180°
2026-05-06 13:25 51.47034 -0.48473 85 ft 16 kts 179°
2026-05-06 13:25 51.46920 -0.48471 85 ft 17 kts 179°
2026-05-06 13:25 51.46794 -0.48469 85 ft 18 kts 180°
2026-05-06 13:25 51.46678 -0.48468 86 ft 10 kts 180°
2026-05-06 13:26 51.46616 -0.48468 89 ft 9 kts 180°
2026-05-06 13:26 51.46532 -0.48468 89 ft 14 kts 175°
2026-05-06 13:26 51.46480 -0.48335 88 ft 18 kts 94°
2026-05-06 13:26 51.46482 -0.47880 83 ft 72 kts 90°
2026-05-06 13:27 51.46485 -0.46784 90 ft 122 kts 89°
2026-05-06 13:27 51.46494 -0.45200 147 ft 154 kts 87°
2026-05-06 13:27 51.46427 -0.43534 759 ft 152 kts 94°
2026-05-06 13:27 51.46173 -0.41799 1153 ft 174 kts 109°
2026-05-06 13:28 51.45461 -0.40096 1571 ft 196 kts 132°
2026-05-06 13:28 51.44320 -0.38699 1950 ft 219 kts 149°
2026-05-06 13:28 51.42833 -0.37722 2344 ft 243 kts 159°
2026-05-06 13:28 51.41185 -0.36689 2778 ft 266 kts 161°
2026-05-06 13:29 51.39353 -0.36385 3603 ft 273 kts 190°
2026-05-06 13:29 51.37560 -0.37408 4462 ft 276 kts 208°
2026-05-06 13:29 51.35840 -0.38784 5394 ft 278 kts 208°
2026-05-06 13:29 51.34097 -0.40156 6290 ft 282 kts 208°
2026-05-06 13:30 51.32328 -0.41542 7102 ft 284 kts 209°
2026-05-06 13:30 51.30541 -0.42939 7954 ft 287 kts 208°
2026-05-06 13:30 51.28739 -0.44345 8791 ft 290 kts 208°
2026-05-06 13:30 51.26911 -0.45772 9632 ft 294 kts 208°
2026-05-06 13:31 51.25068 -0.47232 10314 ft 302 kts 208°
2026-05-06 13:31 51.23121 -0.48792 10521 ft 325 kts 209°
2026-05-06 13:31 51.21052 -0.50436 10924 ft 338 kts 208°
2026-05-06 13:31 51.18928 -0.52093 11610 ft 342 kts 208°
2026-05-06 13:32 51.16783 -0.53745 12330 ft 344 kts 207°
2026-05-06 13:32 51.14617 -0.55406 13011 ft 347 kts 208°
2026-05-06 13:32 51.12436 -0.57079 13718 ft 350 kts 208°
2026-05-06 13:32 51.10238 -0.58769 14335 ft 352 kts 207°
2026-05-06 13:33 51.07955 -0.60222 14935 ft 356 kts 197°
2026-05-06 13:33 51.05491 -0.60840 15510 ft 362 kts 183°
2026-05-06 13:33 51.02973 -0.60535 16088 ft 367 kts 170°
2026-05-06 13:33 51.00522 -0.59298 16662 ft 372 kts 158°
2026-05-06 13:34 50.98139 -0.57700 17305 ft 373 kts 159°
2026-05-06 13:34 50.95874 -0.56191 17851 ft 376 kts 159°
2026-05-06 13:34 50.93460 -0.54594 18449 ft 377 kts 159°
2026-05-06 13:34 50.91027 -0.52995 18971 ft 380 kts 159°
2026-05-06 13:35 50.88571 -0.51387 19487 ft 383 kts 159°
2026-05-06 13:35 50.86100 -0.49770 20051 ft 385 kts 159°
2026-05-06 13:35 50.83616 -0.48144 20557 ft 387 kts 159°
2026-05-06 13:35 50.81121 -0.46511 21075 ft 390 kts 159°
2026-05-06 13:36 50.78607 -0.44867 21567 ft 392 kts 159°
2026-05-06 13:36 50.76077 -0.43210 22022 ft 395 kts 159°
2026-05-06 13:36 50.73526 -0.41541 22487 ft 398 kts 159°
2026-05-06 13:36 50.70990 -0.39882 22980 ft 400 kts 159°
2026-05-06 13:37 50.68385 -0.38181 23447 ft 402 kts 159°
2026-05-06 13:37 50.65790 -0.36493 23835 ft 405 kts 159°
2026-05-06 13:37 50.63174 -0.34795 24223 ft 407 kts 159°
2026-05-06 13:37 50.60584 -0.33114 24628 ft 409 kts 159°
2026-05-06 13:38 50.57915 -0.31385 25026 ft 411 kts 159°
2026-05-06 13:38 50.55265 -0.29669 25407 ft 413 kts 159°
2026-05-06 13:38 50.52637 -0.27969 25784 ft 415 kts 159°
2026-05-06 13:38 50.49961 -0.26238 26162 ft 417 kts 159°
2026-05-06 13:39 50.47273 -0.24500 26539 ft 419 kts 159°
2026-05-06 13:39 50.44565 -0.22748 26901 ft 421 kts 159°
2026-05-06 13:39 50.41814 -0.20973 27269 ft 423 kts 159°
2026-05-06 13:39 50.39118 -0.19240 27630 ft 425 kts 159°
2026-05-06 13:40 50.36369 -0.17478 27994 ft 427 kts 159°
2026-05-06 13:40 50.33614 -0.15716 28359 ft 429 kts 159°
2026-05-06 13:40 50.30843 -0.13943 28714 ft 431 kts 159°
2026-05-06 13:40 50.28057 -0.12159 29067 ft 434 kts 159°
2026-05-06 13:41 50.25258 -0.10373 29414 ft 436 kts 159°
2026-05-06 13:41 50.22438 -0.08580 29770 ft 438 kts 159°
2026-05-06 13:41 50.19612 -0.06767 30104 ft 441 kts 158°
2026-05-06 13:41 50.16796 -0.04870 30402 ft 442 kts 157°
2026-05-06 13:42 50.13981 -0.02902 30747 ft 443 kts 156°
2026-05-06 13:42 50.11181 -0.00919 31169 ft 442 kts 158°
2026-05-06 13:42 50.08286 0.00670 31561 ft 440 kts 166°
2026-05-06 13:42 50.05324 0.01877 31937 ft 440 kts 166°
2026-05-06 13:43 50.02363 0.03058 32328 ft 440 kts 167°
2026-05-06 13:43 49.99391 0.04218 32698 ft 440 kts 167°
2026-05-06 13:43 49.96417 0.05366 33082 ft 440 kts 167°
2026-05-06 13:43 49.93449 0.06515 33448 ft 441 kts 167°
2026-05-06 13:44 49.90474 0.07671 33838 ft 441 kts 166°
2026-05-06 13:44 49.87505 0.08833 34213 ft 439 kts 166°
2026-05-06 13:44 49.84538 0.09999 34486 ft 440 kts 167°
2026-05-06 13:44 49.81567 0.11167 34786 ft 440 kts 167°
2026-05-06 13:45 49.78599 0.12333 34956 ft 441 kts 167°